JBU7532 KLAX-KSAN

Flight info

Callsign JBU7532
Flight time N/A
Altitude 13000
Route LAXX1 MZB
Aircraft A20N/M-SDE2E3FGHIRWXY/LB1

Departure

Time 2026-04-26 04:41
Airport Los Angeles International Airport (KLAX)

Arrival

Time N/A
Airport San Diego International Airport (KSAN)
Time Latitude Longitude Altitude Speed Heading
2026-04-26 04:25 33.93956 -118.40647 125 ft 0 kts 346°
2026-04-26 04:28 33.93907 -118.40642 123 ft 10 kts 16°
2026-04-26 04:28 33.93900 -118.40703 121 ft 10 kts 143°
2026-04-26 04:28 33.93915 -118.40726 124 ft 5 kts 118°
2026-04-26 04:29 33.93896 -118.40656 121 ft 10 kts 97°
2026-04-26 04:29 33.93895 -118.40625 121 ft 0 kts 91°
2026-04-26 04:30 33.93895 -118.40624 121 ft 0 kts 91°
2026-04-26 04:30 33.93895 -118.40612 123 ft 2 kts 88°
2026-04-26 04:30 33.93896 -118.40604 122 ft 3 kts 85°
2026-04-26 04:31 33.93895 -118.40613 123 ft 0 kts 85°
2026-04-26 04:31 33.93895 -118.40614 123 ft 0 kts 85°
2026-04-26 04:31 33.93895 -118.40615 123 ft 0 kts 85°
2026-04-26 04:31 33.93895 -118.40617 123 ft 0 kts 85°
2026-04-26 04:32 33.93895 -118.40619 123 ft 0 kts 85°
2026-04-26 04:32 33.93895 -118.40620 123 ft 0 kts 85°
2026-04-26 04:32 33.93895 -118.40622 121 ft 0 kts 85°
2026-04-26 04:32 33.93895 -118.40612 123 ft 0 kts 85°
2026-04-26 04:33 33.93896 -118.40608 122 ft 4 kts 85°
2026-04-26 04:33 33.93896 -118.40609 123 ft 0 kts 85°
2026-04-26 04:33 33.93879 -118.40531 122 ft 20 kts 119°
2026-04-26 04:33 33.93838 -118.40338 125 ft 20 kts 81°
2026-04-26 04:34 33.93867 -118.40132 122 ft 27 kts 82°
2026-04-26 04:34 33.93884 -118.39944 121 ft 18 kts 83°
2026-04-26 04:34 33.93902 -118.39776 124 ft 24 kts 83°
2026-04-26 04:34 33.93910 -118.39693 125 ft 2 kts 83°
2026-04-26 04:35 33.93928 -118.39517 124 ft 7 kts 84°
2026-04-26 04:35 33.93937 -118.39421 124 ft 19 kts 84°
2026-04-26 04:35 33.93957 -118.39233 125 ft 22 kts 83°
2026-04-26 04:35 33.93967 -118.39148 122 ft 0 kts 84°
2026-04-26 04:36 33.93975 -118.39054 125 ft 32 kts 83°
2026-04-26 04:36 33.94006 -118.38774 125 ft 38 kts 79°
2026-04-26 04:36 33.94014 -118.38692 122 ft 4 kts 85°
2026-04-26 04:36 33.94024 -118.38584 125 ft 30 kts 83°
2026-04-26 04:37 33.94048 -118.38346 125 ft 27 kts 82°
2026-04-26 04:37 33.94068 -118.38150 125 ft 23 kts 82°
2026-04-26 04:37 33.94076 -118.38081 125 ft 10 kts 85°
2026-04-26 04:37 33.94075 -118.38059 125 ft 2 kts 96°
2026-04-26 04:38 33.94075 -118.38058 125 ft 10 kts 97°
2026-04-26 04:38 33.94076 -118.38052 122 ft 3 kts 115°
2026-04-26 04:38 33.94053 -118.38016 125 ft 9 kts 136°
2026-04-26 04:38 33.94047 -118.38008 121 ft 7 kts 154°
2026-04-26 04:39 33.93986 -118.38016 122 ft 5 kts 197°
2026-04-26 04:39 33.94019 -118.38000 123 ft 9 kts 212°
2026-04-26 04:39 33.93976 -118.38097 124 ft 21 kts 260°
2026-04-26 04:39 33.93973 -118.38119 125 ft 0 kts 262°
2026-04-26 04:40 33.93974 -118.38116 125 ft 0 kts 262°
2026-04-26 04:40 33.93992 -118.38300 125 ft 63 kts 273°
2026-04-26 04:40 33.93865 -118.39174 121 ft 153 kts 262°
2026-04-26 04:40 33.93709 -118.40666 605 ft 198 kts 263°
2026-04-26 04:41 33.93526 -118.42467 1645 ft 230 kts 263°
2026-04-26 04:41 33.93320 -118.44391 2726 ft 244 kts 262°
2026-04-26 04:41 33.92993 -118.46500 3760 ft 266 kts 250°
2026-04-26 04:41 33.92060 -118.48612 4185 ft 309 kts 237°
2026-04-26 04:42 33.90740 -118.50817 4496 ft 330 kts 233°
2026-04-26 04:42 33.89423 -118.52857 4868 ft 298 kts 232°
2026-04-26 04:42 33.88627 -118.54011 5086 ft 278 kts 229°
2026-04-26 04:42 33.87657 -118.55159 5351 ft 270 kts 222°
2026-04-26 04:43 33.86220 -118.56627 5727 ft 266 kts 221°